IRIDIUM 98 [P]

Last updated on July 23, 2018, 12:20 a.m. UTC

1 27451U 02031B   18203.44558177  .00074745  12450-6  45724-3 0  9990
2 27451  86.3953 214.4152 0356303 324.3097  33.4783 15.23276066848738

Satellite is not in orbit.